Temperature
17 17 17 18 15 13 15 16 17 18 18 19 19 18 17 16 17 17 16 16 16 16 15 15 15 15 15 15 15 15 15 16 16 16 16 16 16 15 15 15 15 15 15 15 15 15 15 15 15
17 17 17 17 13 14 15 16 17 18 18 19 19 18 16 16 16 16 16 15 15 15 15 15 15 15 15 15 15 15 15 15 15 16 16 15 15 15 15 15 15 15 15 15 15 15 15 15 15
16 17 17 13 13 14 16 17 16 17 19 19 18 17 16 16 16 16 16 16 15 15 15 15 15 15 15 15 15 15 15 15 15 15 15 15 15 15 15 15 15 15 15 15 15 15 15 14 14
16 17 16 13 15 15 16 17 16 17 18 18 17 15 15 16 16 16 16 15 15 15 15 15 15 15 15 15 15 15 15 15 15 15 15 15 15 15 15 15 15 14 14 15 14 14 14 14 14
16 16 13 13 15 15 15 16 17 16 17 17 16 14 15 15 15 15 15 15 15 15 15 15 15 15 15 15 15 15 15 15 15 15 15 15 15 15 14 14 14 14 14 14 14 14 14 14 14
16 13 12 13 14 15 15 17 17 16 16 17 16 14 14 15 15 15 15 15 15 15 14 14 14 14 14 14 14 14 14 14 14 14 14 14 14 14 14 14 14 14 14 14 14 14 14 14 14
14 11 12 14 14 15 16 17 16 15 15 16 16 14 14 14 14 15 14 14 14 14 14 14 14 14 14 14 14 14 14 14 14 14 14 14 14 14 14 14 14 14 14 14 14 13 13 13 13
15 11 13 13 14 15 16 16 16 16 15 16 16 14 13 14 14 14 14 13 14 14 14 14 14 14 14 14 14 13 13 14 14 14 14 14 14 14 13 13 13 14 14 14 14 13 13 13 13
14 11 12 13 14 15 15 15 15 16 16 15 15 15 15 14 14 14 13 13 13 13 13 14 14 13 13 13 13 13 13 13 13 13 13 13 13 13 13 13 13 13 13 13 13 13 13 13 13
13 10 12 13 14 14 15 15 15 15 14 14 14 14 14 14 14 14 14 13 13 13 13 13 13 13 13 13 13 13 13 13 13 13 13 13 13 13 13 13 13 13 13 13 13 13 13 13 13
12 11 12 13 14 14 14 14 14 14 13 13 13 14 13 13 13 13 13 13 13 13 13 13 13 13 13 13 13 13 13 13 13 13 13 13 13 13 13 13 13 13 13 13 13 13 13 13 13
12 12 13 13 14 14 14 14 13 13 14 14 15 14 14 13 13 13 13 13 13 13 13 13 13 13 13 13 13 13 13 13 13 12 12 13 13 12 12 12 12 12 12 12 12 12 12 12 12
11 12 13 13 13 13 13 13 12 12 14 14 14 14 13 13 13 13 13 12 12 12 12 12 12 12 12 12 12 12 12 12 12 12 12 12 12 12 12 12 12 12 12 12 12 12 12 12 12
11 12 12 13 13 13 12 12 12 12 13 13 13 13 13 13 13 12 12 12 12 12 12 12 12 12 12 12 12 12 12 12 12 12 12 12 12 12 12 12 11 11 11 11 11 11 11 12 11
12 11 11 11 12 12 12 11 11 12 13 12 12 12 12 12 12 12 12 12 12 12 12 12 12 11 11 11 11 11 11 11 11 11 11 11 11 11 11 11 11 11 11 11 11 11 11 11 11
11 10 10 10 11 11 11 10 11 12 12 11 12 12 12 12 12 12 12 12 12 12 11 11 11 11 11 11 11 11 11 11 11 11 11 11 11 10 10 10 10 10 10 10 10 10 10 10 10
9 8 9 10 10 10 10 9 10 11 11 10 11 11 11 11 11 11 11 11 11 11 11 11 11 11 11 11 11 11 11 11 11 10 10 10 10 10 10 10 10 10 10 9 10 10 10 10 10
8 8 9 9 9 9 9 8 9 10 10 10 10 10 11 11 11 11 11 11 11 11 11 11 11 11 11 11 10 10 10 10 10 10 10 10 10 9 9 9 9 9 9 9 9 9 9 9 10
9 9 8 9 9 9 8 8 9 9 9 9 9 10 10 11 11 11 10 10 10 10 10 10 10 10 10 10 10 10 10 10 9 9 9 9 9 9 9 9 9 9 9 9 9 9 9 9 9
8 8 8 8 9 9 8 8 8 8 8 9 9 10 10 10 10 10 10 10 10 10 10 10 10 10 10 10 10 10 10 9 9 9 9 9 9 9 9 8 8 8 8 8 8 8 8 8 8
8 8 8 8 8 8 8 7 8 8 8 9 9 10 10 10 10 10 10 10 10 10 10 9 9 9 9 9 9 9 9 9 9 9 8 8 8 8 8 8 8 8 8 8 8 8 8 8 8
7 8 8 8 7 6 7 6 7 7 7 7 8 9 9 9 10 10 9 9 9 9 9 9 9 9 9 9 8 8 8 8 8 8 8 8 8 8 8 7 7 8 7 7 8 8 8 8 8
7 8 7 7 6 6 6 6 6 7 7 7 7 8 9 9 9 9 9 9 9 9 8 8 8 8 8 8 8 8 8 8 8 8 8 7 7 7 7 7 7 7 7 7 7 7 7 7 7
7 7 6 5 5 5 6 5 6 6 7 7 7 8 8 9 9 9 9 8 8 8 8 8 8 8 8 8 8 8 8 8 8 7 7 7 7 7 7 7 7 7 7 7 6 7 7 7 7
6 5 5 5 4 5 5 5 6 6 6 6 6 7 8 8 8 8 8 8 8 8 8 8 8 8 7 7 7 7 7 7 7 7 7 7 7 6 6 6 6 6 6 6 6 6 6 6 6
5 5 5 5 5 4 5 5 5 6 6 6 7 7 7 7 7 7 7 7 7 7 7 7 7 7 7 7 7 7 7 7 7 7 6 6 6 6 6 6 6 6 6 6 6 6 6 6 6
5 5 5 4 4 4 4 4 5 6 5 5 5 6 6 6 7 7 7 7 7 7 7 7 7 7 7 7 7 7 6 6 6 6 6 6 6 6 5 5 5 5 5 5 5 5 5 5 5
5 5 3 4 4 4 4 4 5 5 5 5 4 5 5 6 6 6 6 6 6 6 6 6 6 6 6 7 7 6 6 6 6 6 6 6 5 5 5 5 5 5 5 5 5 5 5 5 5
4 4 4 3 3 4 4 5 5 5 5 4 4 5 5 5 5 5 6 6 6 6 6 6 6 6 6 6 6 6 6 6 6 5 5 5 5 5 5 5 4 4 4 4 4 4 4 4 4
4 3 3 3 2 2 2 4 5 4 4 4 4 5 5 5 5 5 5 5 5 5 5 5 5 5 5 5 5 5 5 5 5 5 5 5 5 4 4 4 4 4 4 4 4 4 4 4 4
Wind_Speed
10 7 2 4 5 4 3 5 3 1 1 0 2 7 8 5 4 4 3 7 9 9 11 12 13 12 12 12 12 12 12 11 11 11 11 11 11 11 10 10 11 11 11 11 12 12 12 13 13
6 3 5 5 4 1 5 5 3 3 4 3 4 5 6 4 2 6 4 7 11 10 11 12 13 13 12 12 12 12 12 11 11 11 10 10 10 10 9 10 10 11 11 11 11 11 12 12 12
4 2 4 4 3 6 5 3 4 2 1 2 4 5 4 3 3 4 6 10 10 10 11 12 13 13 12 12 12 12 11 11 11 10 10 10 10 10 9 9 10 10 10 10 11 10 11 11 11
3 4 4 3 5 6 5 3 3 3 2 3 5 5 3 2 2 5 9 11 10 8 11 12 13 13 12 12 12 11 11 11 10 10 9 9 9 9 9 9 9 9 9 10 10 10 10 10 10
4 4 3 1 6 5 3 3 2 2 1 2 4 5 2 4 4 9 10 10 11 8 10 11 12 12 12 11 11 11 10 10 9 9 9 9 9 9 9 9 9 9 9 9 9 9 9 9 9
4 4 3 4 6 5 3 2 1 2 1 2 5 4 1 1 7 9 10 9 10 9 9 10 11 11 11 11 11 10 10 9 9 9 9 9 9 9 8 8 8 8 8 8 8 8 8 8 8
4 4 5 5 4 4 3 1 2 2 1 1 4 5 2 1 4 8 9 9 9 9 8 7 8 9 10 10 10 9 9 9 8 8 8 8 8 8 8 7 8 8 8 8 8 7 7 7 7
5 4 3 4 5 4 2 1 0 2 2 0 4 7 5 5 5 8 8 8 7 7 7 6 7 7 8 8 9 9 8 9 8 7 7 7 7 7 7 6 7 7 7 7 7 6 6 6 6
4 3 4 5 5 3 1 1 2 1 3 3 2 3 4 9 8 9 8 6 6 6 5 5 5 6 6 7 7 8 8 8 8 7 7 7 6 6 5 6 6 6 6 6 6 5 5 5 5
4 4 7 4 3 2 1 0 0 2 3 3 4 4 6 9 10 10 9 8 7 6 5 4 5 5 5 5 6 6 7 7 7 6 6 6 6 5 5 6 6 6 5 4 4 4 4 4 4
4 6 4 3 2 1 1 1 0 3 1 4 4 6 7 7 8 8 8 8 8 7 6 5 5 5 5 4 5 5 5 6 6 6 6 5 5 5 5 4 4 4 4 3 2 2 2 3 3
3 2 3 2 2 1 1 1 1 2 5 4 7 9 8 8 8 8 8 7 6 6 6 5 5 4 4 5 4 5 4 4 4 4 5 5 4 3 3 3 3 3 3 2 2 2 2 2 2
2 2 2 2 2 1 0 1 1 3 3 2 5 7 7 8 7 5 5 6 6 6 5 5 5 5 4 4 3 4 3 4 4 4 4 5 4 3 3 3 3 2 2 2 2 2 2 1 1
2 1 2 3 3 2 1 4 1 5 2 3 5 6 6 7 7 5 4 4 5 5 5 5 5 5 5 4 3 3 4 4 4 4 4 5 4 4 3 2 2 2 2 2 2 2 2 2 2
1 1 4 4 2 2 0 4 5 6 2 3 4 5 5 5 6 6 6 5 5 5 4 5 5 5 5 4 3 3 4 4 3 3 4 5 4 4 4 3 2 2 2 2 2 2 2 2 1
2 2 2 4 1 1 3 7 6 4 3 4 3 4 4 4 5 5 5 5 4 4 4 4 4 5 5 4 3 2 3 3 3 3 4 4 4 4 4 3 2 2 2 3 2 1 1 1 1
2 1 3 4 2 0 3 7 6 3 4 5 4 4 4 3 3 4 4 5 4 5 5 4 4 5 4 4 3 2 2 3 3 3 3 3 4 4 4 3 2 3 2 2 2 1 1 1 1
4 3 3 5 3 2 4 8 7 4 4 5 5 5 5 5 5 4 4 4 4 4 4 4 4 3 3 3 2 2 1 1 2 2 2 2 3 3 3 3 3 3 2 1 1 1 1 1 1
3 3 5 6 4 3 7 10 10 7 5 6 6 6 7 7 5 4 4 4 4 3 4 4 3 3 3 2 3 3 2 2 1 1 2 3 3 3 4 3 3 3 3 2 2 2 2 1 1
3 3 4 5 3 3 6 10 9 7 7 8 8 8 8 6 4 3 4 4 4 4 4 4 4 3 3 2 2 2 2 1 2 1 1 2 3 3 3 3 3 3 3 3 2 2 1 1 1
3 4 4 5 5 3 3 7 5 5 4 4 5 6 6 8 7 6 5 4 4 4 5 5 4 4 3 2 2 2 1 1 1 2 2 2 3 3 3 3 4 4 4 4 4 4 3 3 1
5 3 3 3 2 4 0 4 7 4 4 5 6 6 6 6 6 7 6 5 5 4 3 4 4 3 3 3 3 4 3 3 3 3 3 2 3 3 3 3 3 4 4 4 4 4 3 4 3
4 2 2 2 2 3 2 3 8 3 4 6 6 7 6 6 7 7 7 7 5 4 3 3 3 3 3 3 4 4 3 3 2 2 2 2 2 3 3 4 3 3 3 4 4 3 3 3 3
1 2 3 3 2 3 5 5 7 4 5 4 4 5 5 4 4 4 4 4 3 3 2 2 3 3 3 3 4 5 5 4 3 3 3 3 2 2 3 4 4 3 3 4 4 4 4 3 3
3 4 2 3 2 6 2 4 7 5 4 3 4 4 3 3 4 3 4 4 4 4 3 3 3 3 3 4 4 5 5 5 5 5 4 4 3 3 4 4 4 4 4 3 4 4 4 4 4
3 5 5 4 5 5 2 6 5 4 3 2 1 1 1 1 3 4 4 5 5 5 4 4 3 3 3 4 4 4 5 4 4 5 4 4 4 4 4 4 4 4 4 3 3 3 3 3 4
3 4 5 3 1 3 5 5 5 2 3 4 3 1 1 1 2 2 2 3 3 4 5 5 4 4 4 4 4 4 4 4 5 4 4 3 3 3 3 4 4 4 4 3 3 2 2 3 3
3 4 3 3 3 4 5 5 4 5 5 4 3 3 3 2 2 1 1 2 3 3 3 3 4 4 3 3 4 4 4 5 4 4 4 4 3 3 4 4 4 4 3 3 3 2 2 2 2
2 2 2 2 3 4 4 5 3 4 4 4 4 4 3 2 3 3 2 2 2 1 2 2 3 3 3 3 3 3 3 3 4 4 4 4 4 3 4 4 3 4 3 3 3 3 3 3 2
3 4 4 3 4 3 3 6 4 3 3 2 3 4 3 3 2 3 2 2 1 1 2 3 3 3 3 3 2 3 3 2 3 4 4 4 4 4 4 4 4 3 4 4 4 4 3 3 3
Wind_Direction
329 337 53 56 59 54 249 255 222 181 124 221 90 98 106 106 123 146 137 136 133 136 137 135 131 127 121 116 112 110 108 108 106 103 101 99 98 97 96 95 94 93 91 90 89 89 91 91 89
334 1 54 61 98 163 262 251 219 217 185 154 90 85 83 82 86 114 126 137 131 131 133 133 131 127 123 119 115 112 109 110 110 106 103 101 99 99 99 99 100 97 93 92 91 92 93 93 91
335 51 79 79 140 193 224 228 209 218 215 115 76 60 92 121 136 148 152 137 124 123 128 131 130 127 124 121 117 114 111 110 109 108 107 104 101 100 101 104 106 103 98 96 93 93 93 93 90
50 50 59 94 218 228 219 229 192 145 41 54 102 70 57 23 161 147 134 128 120 119 123 129 130 129 127 124 121 118 115 112 110 109 108 107 106 102 100 105 107 106 104 101 98 96 94 91 89
59 79 81 226 241 251 239 237 205 135 125 63 95 105 57 351 96 120 125 123 124 122 122 130 130 129 127 125 122 121 118 115 114 111 108 107 108 106 103 106 108 108 107 104 101 99 96 90 88
58 75 121 217 240 260 269 253 171 114 125 103 103 113 114 47 114 125 122 121 124 126 126 131 130 127 126 124 122 121 120 118 117 114 111 109 109 109 110 110 110 112 111 108 105 102 99 92 88
113 118 181 209 226 253 262 262 145 133 127 207 132 118 130 173 138 126 118 118 117 120 118 120 128 129 127 127 126 123 124 120 117 115 113 111 109 110 109 114 114 113 115 113 110 105 104 97 90
132 120 193 222 214 239 269 50 134 138 170 18 112 139 177 194 147 120 112 113 116 117 118 116 117 125 127 127 126 125 123 120 115 110 109 109 106 106 112 111 116 116 116 117 115 110 107 103 95
103 104 209 223 209 229 288 62 354 -0 89 52 50 149 165 141 130 120 115 110 122 126 125 126 122 120 121 128 131 128 124 119 113 109 105 102 99 98 106 114 115 115 115 116 117 117 110 104 99
112 175 220 227 208 216 308 56 181 48 53 51 35 45 103 128 135 142 145 148 150 152 148 138 138 136 128 131 129 128 127 120 113 112 109 103 98 94 100 108 111 110 112 116 119 121 111 99 95
155 190 218 250 249 231 291 322 288 128 208 200 172 157 144 145 150 159 166 163 166 164 157 155 148 147 139 130 129 123 123 122 116 116 117 111 102 97 94 99 100 97 94 95 106 103 113 111 106
164 236 216 257 315 331 245 277 344 192 225 215 176 163 159 166 173 177 179 175 166 161 165 165 151 144 143 136 135 130 127 127 123 126 125 117 107 105 105 106 103 97 101 101 101 108 124 119 124
204 242 267 269 321 303 311 265 224 262 253 169 146 149 164 172 177 178 176 165 160 161 168 168 154 148 142 135 137 130 134 140 135 133 137 130 122 126 126 127 114 111 116 122 116 116 118 118 132
204 234 298 296 295 299 249 270 200 254 224 140 150 172 181 178 170 154 156 165 167 171 175 168 161 156 143 140 139 141 142 141 137 137 144 141 132 135 135 129 117 108 121 131 139 142 134 130 129
80 22 326 290 261 255 143 289 235 235 171 166 187 187 175 177 170 170 177 184 181 175 168 164 164 152 148 145 140 140 141 136 135 143 148 147 140 140 138 132 126 119 113 107 107 111 109 102 106
46 53 298 286 231 249 148 256 261 232 173 204 208 189 187 193 188 183 175 174 181 162 151 156 154 150 155 155 149 135 137 135 137 140 143 154 154 147 140 141 150 135 112 105 115 107 111 106 111
30 230 249 288 255 167 191 251 271 255 191 212 209 199 197 207 210 194 176 164 176 167 153 148 147 157 165 164 150 135 132 135 135 129 134 154 157 159 152 153 150 135 118 118 131 110 123 134 113
213 221 248 253 266 239 242 254 271 259 209 213 212 206 206 209 217 201 185 164 160 163 148 143 145 151 155 156 132 123 114 135 118 127 148 155 162 162 157 153 148 137 135 135 131 134 105 132 152
188 214 258 262 257 241 247 262 268 257 220 220 224 216 211 217 218 187 174 156 141 149 143 143 145 155 150 157 166 175 194 201 186 174 166 165 169 168 159 161 161 155 164 171 161 145 140 120 107
231 257 270 288 300 264 273 276 269 248 225 215 217 220 213 206 202 191 174 163 162 165 160 158 162 167 166 176 185 184 180 202 208 209 186 179 179 174 172 172 175 175 172 169 170 150 147 173 140
241 223 245 270 321 317 310 302 272 266 234 224 218 216 209 194 189 188 181 180 169 174 181 179 182 176 175 163 142 118 95 55 238 219 215 204 191 187 183 185 184 182 178 186 192 176 166 186 218
241 222 227 258 318 291 330 289 286 265 257 240 237 224 212 201 190 187 182 184 186 192 188 180 178 172 176 170 167 166 183 205 225 219 219 223 202 193 188 189 189 189 184 192 200 189 187 179 197
226 240 235 242 222 294 265 223 284 298 257 252 241 236 226 207 190 189 189 190 189 185 178 174 167 170 176 178 182 179 195 214 219 213 212 218 217 204 196 191 189 192 193 197 198 193 193 189 195
201 36 28 45 86 267 232 193 277 265 253 262 253 247 233 210 193 186 185 176 180 174 171 168 161 181 184 177 182 186 195 206 204 216 218 222 229 219 204 197 196 197 194 199 200 193 193 198 197
85 90 25 350 331 249 232 204 252 274 278 255 248 253 232 204 182 177 178 182 186 184 184 186 179 198 204 191 193 198 202 205 209 214 216 218 221 230 218 204 199 199 200 197 194 191 197 200 192
185 152 167 209 232 274 271 225 253 285 312 343 335 257 182 189 192 197 197 192 192 193 191 191 197 211 213 207 207 204 204 208 217 216 217 218 223 228 217 204 195 198 196 193 185 198 202 196 194
162 195 184 159 235 267 266 277 297 329 351 358 2 15 292 238 217 212 208 204 202 201 204 202 203 214 219 217 212 208 209 209 216 220 216 221 225 222 210 207 195 194 189 185 185 205 210 191 196
169 159 126 162 196 247 275 266 255 291 306 323 335 331 300 287 261 243 225 225 227 222 220 208 207 217 223 218 213 216 213 211 209 209 218 220 224 219 213 213 202 195 190 182 181 198 199 188 204
160 162 166 183 193 197 252 265 240 246 274 293 295 292 290 276 257 257 256 253 248 239 222 222 222 222 225 225 220 215 219 217 210 211 219 215 211 208 210 206 203 196 195 189 188 200 202 195 202
199 190 165 185 238 209 217 264 280 272 298 308 306 303 296 283 280 266 266 275 280 262 249 237 233 228 231 227 216 216 215 210 214 218 221 213 210 207 204 199 196 200 197 194 195 200 205 203 208
Height
1508 1509 1510 1511 1515 1525 1523 1515 1508 1506 1505 1505 1504 1504 1507 1511 1515 1522 1518 1518 1520 1522 1524 1525 1527 1528 1529 1530 1530 1531 1531 1532 1532 1532 1533 1533 1534 1534 1534 1535 1535 1535 1535 1536 1536 1536 1537 1537 1537
1508 1509 1511 1511 1521 1530 1523 1512 1508 1504 1504 1504 1505 1506 1507 1511 1513 1515 1516 1518 1520 1522 1524 1525 1527 1528 1529 1530 1531 1531 1532 1532 1532 1533 1533 1534 1534 1534 1535 1535 1535 1536 1536 1536 1537 1537 1537 1538 1538
1508 1509 1511 1514 1522 1524 1516 1507 1505 1503 1503 1503 1505 1507 1510 1512 1513 1515 1516 1518 1520 1522 1524 1525 1527 1528 1529 1530 1531 1531 1532 1532 1533 1533 1534 1534 1534 1535 1535 1535 1536 1536 1537 1537 1537 1538 1538 1538 1539
1508 1510 1511 1517 1518 1513 1508 1505 1503 1503 1503 1503 1505 1509 1512 1514 1514 1515 1516 1518 1520 1522 1524 1525 1527 1528 1529 1530 1530 1531 1532 1532 1533 1533 1534 1534 1535 1535 1536 1536 1536 1537 1537 1537 1538 1538 1538 1539 1539
1507 1508 1515 1519 1514 1508 1505 1503 1502 1502 1503 1504 1505 1509 1512 1514 1514 1515 1516 1518 1520 1522 1523 1525 1526 1527 1528 1529 1530 1531 1532 1532 1533 1533 1534 1534 1535 1535 1536 1536 1536 1537 1537 1537 1538 1538 1539 1539 1539
1507 1509 1520 1521 1513 1507 1504 1503 1503 1503 1503 1505 1506 1509 1512 1514 1514 1515 1517 1518 1520 1521 1523 1525 1526 1527 1528 1529 1530 1530 1531 1532 1532 1533 1534 1534 1535 1535 1535 1536 1536 1537 1537 1537 1538 1538 1538 1539 1539
1507 1512 1516 1514 1512 1508 1504 1503 1503 1503 1504 1505 1506 1509 1512 1514 1515 1516 1517 1518 1520 1521 1523 1524 1525 1527 1528 1528 1529 1530 1531 1531 1532 1533 1533 1534 1534 1535 1535 1536 1536 1536 1536 1537 1537 1538 1538 1538 1539
1506 1510 1512 1512 1510 1507 1503 1503 1503 1503 1504 1505 1506 1508 1510 1513 1514 1515 1517 1518 1520 1521 1522 1523 1524 1526 1527 1528 1529 1529 1530 1531 1531 1532 1533 1533 1534 1534 1535 1535 1535 1536 1536 1536 1537 1537 1538 1538 1539
1505 1513 1514 1509 1507 1505 1503 1502 1503 1503 1503 1505 1506 1507 1508 1511 1513 1514 1516 1517 1519 1520 1521 1523 1524 1525 1526 1527 1528 1529 1529 1530 1531 1531 1532 1532 1533 1533 1534 1534 1534 1535 1535 1536 1536 1536 1537 1537 1538
1504 1512 1508 1504 1503 1503 1502 1502 1503 1503 1503 1505 1505 1506 1508 1509 1511 1513 1514 1515 1517 1518 1520 1521 1522 1523 1524 1525 1526 1527 1528 1529 1530 1530 1531 1531 1532 1532 1533 1533 1533 1534 1534 1535 1535 1536 1536 1537 1537
1502 1506 1503 1502 1501 1501 1501 1502 1502 1503 1504 1503 1504 1505 1507 1508 1510 1511 1513 1514 1516 1517 1518 1520 1521 1522 1523 1524 1525 1526 1527 1528 1528 1529 1529 1530 1530 1531 1531 1532 1532 1533 1533 1533 1534 1534 1535 1536 1536
1502 1502 1501 1501 1500 1500 1501 1501 1502 1501 1502 1502 1503 1504 1505 1507 1508 1510 1511 1513 1514 1516 1517 1518 1519 1520 1521 1522 1523 1524 1525 1526 1526 1527 1528 1528 1529 1529 1530 1530 1530 1531 1531 1532 1532 1533 1534 1534 1535
1501 1501 1500 1500 1500 1500 1500 1500 1501 1500 1500 1501 1502 1503 1504 1505 1507 1509 1510 1512 1513 1514 1515 1516 1517 1519 1520 1521 1521 1522 1523 1524 1524 1525 1526 1526 1527 1527 1528 1528 1529 1529 1530 1530 1531 1531 1532 1533 1533
1500 1500 1500 1499 1499 1499 1500 1499 1500 1498 1499 1499 1500 1501 1502 1503 1505 1506 1508 1509 1510 1512 1513 1514 1515 1517 1518 1519 1519 1520 1521 1522 1522 1523 1524 1524 1525 1525 1526 1526 1526 1527 1527 1528 1529 1529 1530 1531 1531
1499 1501 1500 1499 1498 1499 1500 1500 1498 1496 1498 1498 1498 1499 1500 1501 1503 1504 1505 1507 1508 1509 1511 1512 1513 1514 1515 1517 1517 1518 1519 1519 1520 1521 1521 1522 1523 1523 1524 1524 1524 1525 1525 1526 1527 1527 1528 1529 1529
1500 1504 1506 1500 1498 1498 1502 1502 1495 1495 1495 1496 1496 1497 1498 1499 1501 1502 1503 1505 1506 1507 1508 1509 1511 1511 1513 1514 1515 1515 1516 1517 1518 1518 1519 1520 1520 1521 1521 1522 1522 1522 1523 1524 1524 1525 1526 1526 1527
1506 1509 1507 1502 1498 1499 1501 1500 1494 1494 1493 1494 1494 1495 1496 1497 1498 1500 1501 1502 1503 1504 1505 1506 1508 1509 1510 1511 1512 1513 1513 1514 1515 1516 1516 1517 1518 1519 1519 1520 1520 1520 1521 1521 1522 1523 1523 1524 1525
1509 1509 1506 1504 1499 1499 1500 1498 1492 1492 1492 1491 1492 1493 1493 1494 1495 1497 1498 1499 1501 1502 1503 1504 1505 1506 1507 1508 1509 1510 1510 1511 1512 1513 1514 1514 1515 1516 1517 1517 1517 1518 1518 1519 1520 1520 1521 1522 1522
1503 1504 1505 1502 1498 1499 1498 1495 1490 1488 1489 1489 1489 1489 1490 1491 1493 1495 1496 1497 1498 1499 1499 1500 1502 1503 1504 1505 1505 1506 1507 1508 1509 1510 1511 1511 1512 1513 1514 1514 1515 1515 1515 1516 1517 1518 1519 1519 1520
1502 1504 1504 1501 1497 1498 1497 1493 1487 1485 1485 1484 1485 1485 1486 1488 1490 1491 1492 1494 1495 1496 1496 1498 1499 1500 1501 1502 1502 1503 1504 1505 1506 1507 1507 1508 1509 1510 1510 1511 1511 1512 1513 1513 1514 1515 1515 1516 1518
1501 1503 1503 1502 1499 1497 1498 1493 1486 1482 1481 1482 1482 1482 1483 1484 1486 1487 1489 1490 1492 1493 1494 1495 1496 1496 1497 1498 1499 1500 1501 1502 1503 1503 1504 1505 1505 1506 1507 1508 1508 1509 1509 1510 1511 1512 1512 1513 1515
1501 1499 1500 1501 1504 1507 1502 1504 1488 1483 1481 1480 1479 1479 1480 1481 1483 1484 1485 1487 1489 1490 1491 1492 1493 1493 1494 1495 1496 1496 1497 1498 1499 1500 1500 1501 1502 1503 1504 1505 1505 1506 1506 1507 1508 1509 1509 1510 1511
1499 1497 1499 1500 1504 1507 1504 1506 1492 1484 1482 1478 1477 1476 1477 1478 1479 1481 1482 1484 1486 1487 1488 1489 1490 1490 1491 1492 1493 1493 1494 1495 1496 1497 1497 1498 1499 1499 1500 1501 1502 1502 1503 1504 1505 1505 1506 1507 1508
1497 1499 1501 1505 1508 1511 1502 1505 1495 1486 1480 1477 1475 1474 1474 1476 1477 1479 1480 1482 1483 1484 1485 1486 1487 1487 1488 1489 1489 1490 1491 1492 1493 1493 1493 1494 1495 1495 1496 1497 1498 1499 1499 1500 1501 1502 1503 1504 1505
1498 1506 1513 1513 1517 1509 1499 1500 1493 1481 1478 1476 1474 1473 1472 1473 1475 1476 1477 1479 1480 1481 1482 1483 1483 1484 1485 1485 1486 1487 1487 1488 1489 1489 1490 1490 1491 1492 1492 1493 1494 1495 1496 1496 1497 1498 1499 1500 1501
1499 1503 1512 1514 1514 1508 1500 1498 1487 1480 1477 1475 1474 1472 1472 1472 1473 1474 1475 1476 1477 1478 1479 1480 1480 1480 1481 1482 1482 1483 1483 1484 1485 1486 1486 1487 1487 1488 1488 1489 1490 1491 1492 1492 1493 1494 1495 1496 1497
1499 1502 1502 1509 1512 1511 1502 1494 1485 1478 1477 1475 1474 1472 1472 1472 1472 1472 1473 1474 1475 1475 1476 1476 1477 1477 1478 1478 1479 1479 1480 1481 1481 1482 1483 1484 1484 1485 1485 1485 1486 1487 1488 1488 1490 1490 1491 1492 1493
1497 1499 1506 1508 1511 1507 1501 1496 1489 1481 1478 1476 1474 1473 1472 1472 1472 1472 1472 1472 1472 1473 1473 1473 1474 1474 1474 1475 1475 1476 1476 1477 1478 1478 1479 1480 1480 1481 1482 1482 1482 1483 1484 1485 1486 1487 1487 1488 1489
1499 1501 1502 1506 1507 1505 1502 1494 1481 1479 1477 1476 1475 1474 1473 1472 1471 1471 1470 1470 1470 1471 1471 1471 1471 1471 1471 1472 1472 1472 1473 1473 1474 1475 1475 1476 1477 1477 1478 1478 1478 1479 1480 1481 1482 1483 1483 1484 1485
1497 1498 1502 1506 1507 1507 1506 1496 1478 1477 1476 1475 1474 1474 1473 1472 1471 1470 1470 1469 1469 1468 1468 1468 1468 1468 1469 1469 1469 1469 1470 1470 1470 1471 1472 1472 1473 1474 1474 1474 1475 1476 1476 1477 1478 1478 1479 1480 1480